User: anonymous   Login
Location: Unspecified
(0.0000°N, 0.0000°E)
Time: 10:19:54
(UTC+00:00)
Language:

COSMOS 2497 - Orbit

View from above orbital plane
View from above orbital plane
View from above satellite
View from above satellite

Ground track
Ground track

The orbit data is extracted from the following two-line orbital elements,

1 39762U 14028B   17080.86879632 +.00000010 +00000-0 +00000-0 0  9998
2 39762 082.4488 062.7231 0019346 219.9014 140.0647 12.42863962128403
Epoch (UTC): 21 March 2017 20:51:04
Eccentricity: 0.0019346
inclination: 82.4488°
perigee height: 1479 km
apogee height: 1510 km
right ascension of ascending node: 62.7231°
argument of perigee: 219.9014°
revolutions per day: 12.42863962
mean anomaly at epoch: 140.0647°
orbit number at epoch: 12840

The dashed part of the orbit path shows where the satellite is in the earth's shadow,  

DLR